Wind_Speed
1 4 8 9 11 16 16 18 22 25 27 18 21 22 28 34 29 32 34 30 35 37 35 28 32 27 30 29 34 33 35 45 44 45 43 41 40 40 40 36 36 34 35 33
1 8 9 7 9 10 11 13 22 21 20 14 19 23 26 28 31 31 27 33 33 34 30 21 24 23 23 24 27 33 36 39 43 42 39 41 40 43 41 37 35 36 36 36
5 4 3 6 11 13 14 15 17 16 23 25 16 15 8 20 25 10 13 15 13 12 10 10 9 7 11 16 20 26 34 36 38 39 37 40 40 39 40 42 40 40 37 36
6 5 4 4 9 11 16 9 12 14 14 8 8 13 17 15 13 13 16 15 17 16 13 11 3 1 2 6 10 15 23 31 36 33 33 36 40 40 42 40 40 41 39 37
3 3 6 7 8 10 7 5 12 14 14 14 15 7 5 14 16 13 14 17 15 14 14 14 11 7 6 5 8 10 14 19 25 31 28 31 34 35 35 37 36 36 38 39
15 5 4 5 3 11 3 8 12 9 6 5 4 3 3 8 11 13 14 18 16 16 15 15 13 10 9 9 9 9 11 12 16 21 27 27 30 32 35 35 33 32 30 32
5 3 2 4 3 1 5 4 3 2 3 5 8 6 4 11 13 11 14 23 22 18 18 19 20 18 16 15 14 14 13 9 12 18 22 25 27 29 32 31 32 32 30 31
4 6 5 5 5 1 6 4 2 4 4 11 11 5 4 7 15 20 22 25 28 23 21 21 23 22 21 21 19 15 15 13 8 14 17 19 23 30 31 29 29 31 32 32
3 6 4 6 4 3 2 5 3 4 8 6 1 2 5 15 14 19 23 25 29 31 28 26 27 28 26 24 22 20 16 13 10 7 6 11 19 23 27 30 30 25 29 34
2 8 5 1 1 9 14 1 1 2 4 4 2 3 6 14 15 16 18 26 29 32 34 32 30 33 34 29 25 22 20 18 14 5 4 5 8 18 23 31 31 32 32 32
4 5 7 6 6 5 3 4 5 3 3 3 4 3 6 10 12 14 18 25 28 29 33 35 34 37 36 36 33 27 25 22 18 12 6 6 5 6 11 18 21 25 31 37
1 4 6 11 16 3 2 4 9 4 3 1 1 3 7 9 13 19 20 22 25 30 31 30 38 40 41 40 40 39 32 27 24 17 11 6 8 7 7 10 14 16 20 21
3 2 6 8 3 5 4 2 4 7 1 2 2 3 8 12 14 18 19 21 24 26 32 35 42 41 38 34 37 39 39 35 31 25 23 20 17 13 12 8 7 9 11 16
4 1 1 3 4 8 8 10 6 2 2 5 4 5 9 12 13 16 18 19 23 27 30 32 38 38 41 41 39 37 35 37 37 34 31 30 28 24 20 17 12 7 3 8
1 2 4 7 11 16 15 17 11 7 4 4 6 6 8 11 11 16 15 19 26 28 30 33 37 36 35 36 35 35 36 37 37 37 37 36 33 30 27 24 19 16 10 5
1 1 2 2 4 8 16 17 9 13 15 12 11 8 6 9 12 16 19 21 24 25 25 27 29 30 30 32 35 35 35 35 34 36 37 36 36 34 33 32 28 24 19 16
1 3 2 0 5 3 5 10 11 14 14 4 4 4 7 8 14 18 17 20 21 21 20 23 24 25 26 27 30 34 36 34 33 33 33 34 34 33 35 34 31 32 31 25
4 2 2 2 3 3 3 4 11 15 11 9 9 7 9 14 15 16 17 17 18 18 19 23 25 26 27 26 28 31 35 36 35 33 31 31 31 32 32 32 33 33 32 30
8 2 1 2 3 3 4 3 3 3 7 8 3 8 11 11 6 16 15 15 15 17 19 21 23 24 25 28 29 30 33 35 36 36 34 31 29 29 28 30 30 30 29 28
2 4 2 2 3 4 3 6 5 5 3 7 5 1 1 8 1 3 12 15 15 17 19 21 23 24 26 28 28 29 32 35 38 36 34 31 29 28 27 27 26 26 26 25
2 3 4 3 2 2 6 10 3 2 3 7 8 8 4 6 7 5 8 13 14 16 18 20 22 25 27 27 26 29 30 31 29 30 30 30 30 29 27 25 24 23 23 22
1 0 2 0 1 2 11 1 1 7 9 8 8 10 16 14 10 8 10 12 14 15 16 18 21 24 26 27 26 28 29 26 26 27 29 29 29 28 27 26 25 25 26 26
1 1 2 2 2 3 6 11 9 8 11 8 10 9 10 10 9 8 10 12 14 15 15 17 20 21 24 25 26 26 25 24 25 26 27 27 28 28 28 28 28 28 29 29
2 1 3 4 4 5 7 10 11 11 13 13 12 10 9 10 8 8 9 11 13 14 15 17 18 20 21 23 24 24 24 22 23 24 24 25 26 26 26 26 26 27 28 29
0 2 5 3 8 7 4 9 12 14 14 14 12 10 11 10 10 9 10 11 12 13 15 16 18 19 20 21 21 22 22 24 23 21 23 24 23 24 24 23 23 23 23 23
3 4 3 3 14 4 8 13 10 9 10 9 8 9 9 8 10 9 10 11 11 13 13 15 17 18 19 19 20 21 22 23 23 22 23 23 22 22 22 20 18 18 18 19
Wind_Direction
343 257 244 247 234 262 275 284 289 280 286 295 282 282 290 291 280 280 278 281 275 271 269 279 282 276 268 256 252 237 235 231 230 228 229 230 234 236 236 234 236 237 238 237
284 254 275 238 257 261 276 282 271 286 292 304 297 292 280 284 283 286 296 283 282 279 276 276 271 259 245 237 230 228 231 228 231 232 235 236 237 239 242 239 237 236 236 238
223 233 314 283 270 271 260 256 276 278 309 303 296 290 307 297 294 9 14 0 357 340 319 266 249 253 216 213 211 214 222 228 230 235 237 239 241 244 245 241 239 239 236 235
256 283 259 252 240 242 278 227 259 287 306 302 350 294 325 338 345 7 15 9 2 1 352 352 309 315 119 172 183 190 206 217 223 223 231 238 239 240 246 248 245 241 238 236
280 240 229 244 246 206 252 267 282 282 285 298 300 257 316 356 355 3 358 5 5 9 10 9 9 356 27 93 134 155 181 201 216 220 219 232 239 243 247 251 250 249 248 238
255 259 246 227 272 223 222 293 286 262 256 264 351 351 3 5 344 347 352 354 6 14 17 22 30 37 55 66 99 109 157 183 205 214 218 223 236 246 248 247 248 248 247 243
295 221 250 210 258 138 190 266 317 290 198 258 333 323 33 2 3 355 354 355 3 16 20 24 34 36 50 60 75 86 100 143 194 205 207 218 227 235 239 249 255 253 248 248
2 329 188 183 228 239 182 195 274 306 306 312 308 348 46 20 8 5 5 10 11 16 23 27 34 36 46 55 63 78 89 95 134 188 201 213 225 234 237 240 245 254 251 249
311 256 257 229 186 211 147 200 202 280 274 267 12 65 208 20 15 4 8 13 10 15 23 24 32 37 48 55 57 64 68 76 85 122 171 208 233 239 242 248 246 248 255 254
295 287 259 306 211 240 230 165 187 177 290 288 166 95 357 2 9 2 7 10 9 14 23 29 33 38 45 53 58 64 62 55 61 66 5 297 250 253 257 257 256 252 254 258
242 234 279 311 221 275 161 207 211 242 210 281 298 72 24 17 12 6 11 11 11 14 25 25 38 44 48 53 57 60 62 59 54 67 48 15 350 302 285 276 269 262 254 252
261 281 279 279 300 231 207 235 210 237 217 186 78 86 15 31 23 17 15 11 15 23 25 24 41 46 49 50 53 54 55 55 51 46 42 22 10 351 325 297 282 275 265 263
325 0 303 333 26 37 316 233 235 246 189 103 278 94 22 30 29 24 22 16 17 20 27 27 44 43 44 35 54 57 59 57 55 52 49 46 39 30 26 4 322 289 268 256
186 172 166 58 351 332 300 255 279 181 194 115 53 81 17 23 23 16 27 19 21 23 22 26 36 38 41 37 45 50 57 57 54 51 50 48 42 35 30 29 25 358 322 257
93 247 206 118 81 32 22 42 68 80 63 67 99 85 36 28 21 12 29 27 26 23 23 23 27 30 37 37 33 45 50 52 52 51 50 48 46 43 39 34 28 28 18 2
80 264 242 225 201 81 32 26 60 83 88 97 106 87 61 52 36 31 30 25 29 26 23 25 29 28 33 38 34 41 46 48 49 48 48 48 47 46 44 43 38 36 30 18
333 307 277 41 305 227 40 15 41 65 46 46 70 91 115 71 51 33 27 26 25 22 22 26 30 31 37 44 45 38 44 46 49 47 44 43 41 43 44 44 42 41 38 34
287 298 236 214 262 62 120 90 79 70 62 81 101 124 128 108 79 49 33 28 24 24 24 28 33 35 37 43 48 47 46 46 47 48 46 43 41 39 38 39 41 43 40 36
235 241 222 153 60 111 136 36 339 16 61 33 73 166 170 166 115 44 27 27 29 33 36 36 38 39 41 45 45 47 47 45 43 43 43 42 43 39 38 37 36 38 37 38
157 53 196 167 154 202 68 339 319 293 84 39 25 53 261 205 66 31 13 27 38 45 43 42 43 43 45 45 44 46 46 43 40 39 40 41 41 40 40 39 35 36 37 37
346 8 38 38 98 108 4 320 291 264 98 86 66 55 93 89 84 95 35 38 42 47 46 45 44 42 43 44 45 47 47 44 41 39 38 40 40 39 39 39 37 34 36 38
31 1 84 189 128 182 357 149 308 105 101 109 97 94 97 105 102 71 50 45 46 49 48 47 46 45 44 44 43 43 44 38 40 41 41 39 37 38 39 38 38 37 35 35
268 356 140 23 103 90 41 88 111 146 135 133 123 112 108 107 95 80 62 51 48 48 47 48 48 45 43 41 39 41 38 34 33 36 37 36 34 33 31 30 32 33 32 30
82 31 90 172 137 117 116 111 114 129 134 142 132 131 123 116 105 87 73 62 56 54 51 49 48 46 43 40 38 38 37 34 32 33 32 33 31 28 26 26 26 25 26 26
43 99 125 83 126 117 125 138 130 122 127 129 128 122 116 115 108 98 85 73 67 61 54 49 46 43 40 37 35 32 33 33 32 28 28 29 27 27 26 23 23 23 24 19
201 161 178 205 172 151 168 159 144 132 129 123 118 111 100 94 96 91 84 74 64 57 51 46 42 38 35 32 30 28 28 29 26 25 25 23 21 21 21 23 26 22 20 16
Height
1502 1500 1497 1498 1499 1495 1496 1496 1492 1480 1477 1487 1478 1474 1458 1451 1453 1448 1442 1443 1438 1433 1431 1431 1428 1426 1425 1425 1426 1428 1433 1441 1449 1454 1459 1463 1468 1471 1473 1476 1479 1483 1488 1490
1503 1497 1494 1497 1497 1498 1498 1498 1486 1476 1475 1477 1468 1465 1456 1445 1439 1442 1440 1434 1430 1428 1427 1426 1421 1418 1417 1417 1418 1421 1425 1431 1439 1446 1452 1457 1461 1464 1468 1471 1472 1475 1479 1483
1499 1491 1493 1495 1493 1493 1490 1493 1486 1486 1473 1468 1464 1451 1447 1440 1436 1439 1440 1437 1431 1428 1423 1419 1417 1414 1411 1410 1411 1415 1418 1423 1431 1439 1444 1449 1453 1457 1459 1463 1464 1468 1472 1477
1497 1492 1493 1493 1492 1490 1484 1485 1485 1482 1481 1472 1468 1452 1442 1440 1436 1444 1443 1438 1434 1429 1426 1420 1415 1412 1408 1406 1407 1409 1413 1418 1424 1430 1435 1441 1444 1447 1451 1455 1458 1461 1466 1470
1489 1491 1492 1490 1484 1484 1481 1481 1480 1479 1478 1474 1455 1463 1438 1447 1450 1449 1449 1443 1437 1431 1426 1422 1417 1414 1409 1406 1406 1406 1409 1412 1418 1424 1429 1436 1441 1442 1447 1449 1451 1454 1459 1465
1490 1489 1488 1482 1481 1481 1479 1480 1474 1473 1476 1474 1457 1465 1449 1465 1466 1458 1453 1448 1440 1433 1428 1423 1418 1415 1410 1407 1405 1405 1405 1408 1413 1418 1423 1430 1436 1440 1443 1444 1445 1446 1449 1454
1487 1481 1481 1482 1481 1480 1481 1480 1471 1468 1471 1456 1447 1450 1471 1473 1471 1466 1459 1453 1444 1436 1431 1426 1418 1416 1411 1407 1404 1404 1402 1406 1411 1416 1421 1425 1429 1436 1438 1441 1440 1440 1443 1446
1488 1476 1477 1476 1474 1471 1476 1473 1471 1471 1456 1453 1444 1452 1472 1478 1475 1469 1462 1456 1448 1440 1435 1430 1423 1419 1413 1408 1406 1405 1405 1408 1414 1416 1418 1421 1426 1433 1433 1434 1435 1435 1436 1439
1488 1484 1474 1473 1471 1471 1473 1471 1466 1469 1462 1462 1452 1469 1471 1476 1475 1471 1465 1458 1449 1443 1437 1432 1428 1423 1417 1413 1410 1407 1410 1412 1414 1415 1419 1415 1427 1429 1425 1428 1429 1429 1430 1432
1492 1481 1468 1467 1468 1466 1463 1463 1467 1469 1465 1453 1452 1467 1477 1478 1477 1475 1468 1462 1457 1449 1441 1436 1433 1427 1423 1419 1416 1413 1412 1412 1411 1407 1411 1422 1419 1420 1422 1424 1424 1424 1425 1427
1490 1489 1469 1469 1463 1458 1464 1462 1463 1461 1462 1455 1448 1473 1489 1488 1485 1481 1476 1469 1462 1458 1450 1443 1436 1431 1428 1426 1421 1418 1417 1415 1415 1415 1421 1424 1421 1420 1420 1419 1417 1416 1417 1419
1486 1485 1475 1463 1457 1456 1456 1455 1456 1458 1453 1453 1460 1484 1493 1491 1490 1485 1482 1478 1471 1464 1458 1448 1443 1435 1431 1428 1425 1419 1417 1415 1419 1420 1421 1419 1417 1415 1415 1414 1412 1411 1411 1413
1488 1483 1476 1461 1459 1458 1458 1455 1456 1454 1455 1461 1457 1483 1496 1494 1492 1490 1488 1483 1477 1472 1464 1459 1446 1442 1436 1445 1436 1432 1429 1429 1428 1424 1420 1418 1417 1416 1413 1410 1409 1407 1407 1408
1485 1485 1483 1486 1486 1484 1469 1457 1451 1452 1453 1469 1482 1494 1497 1496 1494 1493 1492 1487 1482 1475 1469 1463 1456 1451 1445 1441 1437 1436 1437 1432 1427 1424 1420 1418 1416 1414 1411 1409 1407 1406 1404 1404
1483 1479 1483 1484 1487 1486 1480 1466 1461 1463 1467 1468 1490 1496 1501 1501 1499 1497 1495 1490 1484 1479 1473 1467 1460 1457 1453 1450 1450 1443 1437 1432 1432 1429 1425 1422 1421 1418 1415 1411 1408 1406 1404 1403
1481 1478 1479 1481 1481 1483 1484 1481 1476 1474 1479 1488 1493 1499 1506 1506 1504 1499 1496 1492 1489 1486 1482 1478 1473 1469 1464 1458 1454 1449 1443 1440 1438 1434 1432 1430 1427 1423 1420 1416 1413 1410 1406 1404
1482 1481 1474 1474 1478 1477 1482 1492 1487 1484 1487 1486 1489 1502 1507 1506 1505 1502 1500 1497 1493 1491 1489 1485 1481 1477 1472 1466 1461 1456 1450 1447 1440 1438 1436 1434 1432 1428 1425 1422 1418 1414 1411 1409
1482 1480 1476 1470 1473 1478 1494 1496 1495 1494 1497 1499 1501 1504 1506 1506 1507 1506 1504 1502 1498 1495 1491 1486 1482 1478 1473 1469 1463 1459 1453 1449 1447 1444 1442 1440 1436 1433 1430 1428 1423 1419 1416 1413
1484 1479 1472 1470 1475 1487 1492 1497 1496 1493 1501 1502 1501 1504 1505 1505 1504 1507 1506 1503 1501 1497 1493 1489 1486 1482 1478 1472 1468 1463 1459 1458 1455 1449 1446 1443 1440 1438 1435 1433 1430 1427 1424 1420
1480 1477 1473 1470 1469 1474 1495 1498 1497 1495 1496 1505 1504 1503 1502 1501 1499 1510 1508 1505 1503 1499 1495 1492 1489 1486 1481 1476 1473 1469 1465 1461 1456 1454 1452 1450 1447 1443 1440 1438 1435 1434 1430 1426
1478 1477 1479 1474 1477 1490 1499 1498 1496 1490 1502 1506 1506 1505 1503 1503 1509 1511 1509 1507 1503 1500 1497 1495 1493 1490 1484 1481 1478 1474 1471 1469 1468 1463 1459 1454 1451 1449 1446 1443 1440 1438 1434 1430
1483 1479 1482 1482 1482 1484 1499 1496 1493 1503 1504 1506 1507 1508 1507 1508 1510 1510 1509 1508 1505 1503 1501 1499 1497 1493 1490 1486 1484 1479 1476 1476 1473 1469 1463 1459 1458 1455 1453 1450 1446 1444 1439 1434
1484 1485 1483 1489 1492 1500 1500 1500 1501 1504 1506 1508 1508 1508 1509 1511 1512 1512 1511 1509 1507 1505 1505 1504 1499 1497 1493 1491 1487 1485 1483 1479 1476 1472 1468 1467 1463 1459 1457 1453 1448 1445 1442 1439
1488 1488 1488 1493 1500 1501 1502 1503 1504 1505 1506 1508 1510 1511 1511 1512 1513 1513 1513 1511 1510 1509 1507 1503 1501 1499 1499 1496 1492 1489 1486 1484 1479 1476 1474 1469 1467 1465 1461 1458 1453 1450 1446 1443
1488 1488 1490 1495 1498 1501 1503 1504 1505 1506 1507 1508 1510 1511 1512 1513 1514 1514 1513 1513 1513 1511 1509 1508 1505 1502 1501 1497 1494 1491 1489 1485 1481 1482 1477 1473 1472 1469 1465 1462 1459 1454 1451 1448
1487 1487 1488 1487 1490 1494 1498 1501 1503 1505 1506 1508 1509 1510 1511 1512 1512 1514 1514 1513 1513 1511 1510 1509 1505 1503 1501 1499 1495 1492 1489 1486 1484 1482 1478 1476 1474 1472 1469 1466 1463 1458 1454 1451